Regional Weather Roundup
Issued by NWS Pendleton, OR

Home | Current Version | Previous Version | Text Only | Print | Product List | Glossary On
Versions: 1 2 3 4 5 6 7 8 9 10 11 12 13 14 15 16 17 18 19 20 21 22 23 24 25 26 27 28 29 30 31 32 33 34 35 36 37 38 39 40 41 42 43 44 45 46 47 48 49 50
000
ASUS46 KPDT 051025
RWRPDT
PENDLETON REGIONAL WEATHER ROUNDUP
NATIONAL WEATHER SERVICE PENDLETON OREGON
300 AM PDT SAT SEP 5 2015

NOTE: FAIR INDICATES FEW OR NO CLOUDS BELOW 12,000 FEET WITH NO
SIGNIFICANT WEATHER AND/OR OBSTRUCTIONS TO VISIBILITY.

# INDICATES UNOFFICIAL STATION AND DATA

WAZ520-051110-
EAST SLOPES OF WASHINGTON CASCADES

CITY            SKY/WX      TMP DP  RH  WIND    PRES   REMARKS
#BULLFROG 2SW   N/A         46  38  73  CALM    27.55S
#BUMPING DAM    N/A         38  N/A N/A SW5     N/A
#CLE ELUM HS    N/A         48  40  74  W7      29.89F
#CLIFFDEL 2NW   N/A         39  37  92  N1      N/A
#GLENWOOD       N/A         31  30  96  CALM    29.98R
#MANASTASH CYN  N/A         49  31  50  CALM    29.88S
#NELSON         N/A         49  42  77  CALM    29.93S
#NELSON 3SW     N/A         47  38  71  CALM    30.12F
#NILE           N/A         48  39  71  S1      29.20F
#SNOWDEN        N/A         42  34  73  CALM    N/A
#TEANAWAY 4NE   N/A         42  39  89  CALM    N/A
#TROUT LAKE 1NE N/A         39  37  92  CALM    29.96S
$$

WAZ521-051110-
SIMCOE HIGHLANDS

CITY            SKY/WX      TMP DP  RH  WIND    PRES   REMARKS
#BICKLETON HS   N/A         49  25  39  CALM    N/A
#CENTERVILLE 4W N/A         49  42  77  N18     29.66F WCI 43
#CENTERVILLE 1SWN/A         48  41  77  W12     29.87F WCI 43
#GOLDENDALE     N/A         44  40  86  SW2     N/A
#GOLDENDALE 1NE N/A         44  39  82  CALM    N/A
#GOLDENDALE 5WNWN/A         45  40  82  W7      29.92R
#GOODNOE HILLS  N/A         52  43  71  W7      N/A
#LYLE 6NE       N/A         49  44  83  SW2     29.91S
$$

WAZ026-051110-
KITTITAS VALLEY

CITY            SKY/WX      TMP DP  RH  WIND    PRES   REMARKS
ELLENSBURG AP   MOCLDY      54  39  57  NW26G36 29.88S
#ELLENSBURG CWU N/A         52  40  63  W15     29.82S
#ELLENSBURG 3NE N/A         50  40  68  N10     29.89S
#ELLENSBURG 1E  N/A         52  37  56  NW1     N/A
#KITTITAS 4N    N/A         50  40  68  N6      29.88S
#KITTITAS 3S    N/A         51  42  71  NW3     29.85S
#THORP 6N       N/A         48  40  74  N14G25  29.90F WCI 42
$$

WAZ027-051110-
YAKIMA VALLEY

CITY            SKY/WX      TMP DP  RH  WIND    PRES   REMARKS
SUNNYSIDE AP    CLOUDY      53  43  69  N3      29.88R
YAKIMA AIRPORT  CLOUDY      59  37  44  W10     29.88F
YAKIMA-VAGABOND MOCLDY      53  37  54  SE3     29.88S
#DONALD 2NE     N/A         56  31  38  CALM    28.74R
#GRANDVIEW      N/A         56  39  53  W1      29.88R
#MABTON         N/A         55  44  66  CALM    29.87R
#MOXEE 2E       N/A         54  30  40  CALM    29.86R
#NACHES 2SW     N/A         52  40  63  W12     29.89S
#OUTLOOK DOT    N/A         N/A N/A N/A W7      N/A
#SELAH 8E       N/A         51  36  56  E1      N/A
#TERRACE HTS    N/A         54  39  57  CALM    29.84R
#TOPPENISH      N/A         55  40  57  NW2     29.79R
#WAPATO 4NE     N/A         56  31  38  CALM    28.74R
#W YAKIMA       N/A         56  39  53  W3      29.86F
#WHITE SWAN 5E  N/A         46  40  79  CALM    29.88S
#WILEY CITY 3W  N/A         53  34  48  CALM    29.85R
$$

WAZ028-051110-
LOWER COLUMBIA BASIN...WASHINGTON

CITY            SKY/WX      TMP DP  RH  WIND    PRES   REMARKS
PASCO           LGT RAIN    56  46  69  SW13G24 29.86R
#BENTON CITY    N/A         57  40  53  W10     29.75S
#CONNELL 5N     N/A         52  49  89  CALM    29.83R
#CONNELL 5NW    N/A         52  47  83  CALM    29.80R
#ELTOPIA 6NW    N/A         55  46  72  SW5     28.81R
#KAHLOTUS       N/A         50  47  89  W15     29.83R
#KENNEWICK      N/A         46  38  73  CALM    27.55S
#KENNEWICK 3S   N/A         54  46  74  S7      29.86R
#PASCO-BROADMOORN/A         58  47  67  S5      29.75S
#PATERSON       N/A         54  45  71  W7      29.85S
#PROSSER        N/A         56  38  51  W8      29.85S
#SAGEMOOR 2W    N/A         56  47  72  S3      29.67F
#TOUCHET 2S     N/A         52  46  80  SW16G25 29.85R
#WEST PASCO     N/A         57  45  64  S1      29.82S
$$

WAZ029-051110-
FOOTHILLS OF THE BLUES...WASHINGTON

CITY            SKY/WX      TMP DP  RH  WIND    PRES   REMARKS
WALLA WALLA AP  LGT RAIN    51  47  86  S17     29.89R
#DAYTON SCHOOL  N/A         50  42  74  W2      29.88R
#LOWDEN 2SE     N/A         53  47  80  W13     29.84R
#PLEASANT VIEW 1N/A         48  46  93  SW14    29.86R WCI 42
#PRESCOTT       N/A         51  48  89  S2      29.85R
#SUDBURY        N/A         54  N/A N/A CALM    N/A
#WHITMAN COLLEGEN/A         51  47  86  S2      29.93R
#WAITSBURG 5S   N/A         48  45  89  S13     29.96R WCI 43
#WAITSBURG 8N   N/A         48  38  68  S10     29.74R
#WALLA WALLA U  N/A         53  48  83  CALM    29.88R
#WHITMAN MISSIONN/A         53  48  83  CALM    29.90R
$$

WAZ030-051110-
BLUE MOUNTAINS...WASHINGTON

CITY            SKY/WX      TMP DP  RH  WIND    PRES   REMARKS
#DIXIE 5SE      N/A         44  42  93  S7      29.81S
#SKI BLUEWOOD   N/A         36  34  92  CALM    29.85F
$$

ORZ009-041-WAZ024-051110-
COLUMBIA RIVER GORGE

CITY            SKY/WX      TMP DP  RH  WIND    PRES   REMARKS
THE DALLES AP   PTCLDY      55  46  72  NW16    29.93S
#ARLINGTON AIRPON/A         53  42  66  W7      29.83S
#MOSIER 1S      N/A         51  39  63  NW3     29.96S

$$

ORZ510-051110-
NORTH CENTRAL OREGON

CITY            SKY/WX      TMP DP  RH  WIND    PRES   REMARKS
#CHENOWITH 1W   N/A         48  43  83  W25     N/A    WCI 40
#MAUPIN SCHOOL  N/A         46  43  89  CALM    29.98R
#MORO SCHOOL    N/A         50  43  77  SW1     29.95R
#SHANIKO 4NW    N/A         40  38  92  SW3     29.95S
#TYGH VALLEY 2NEN/A         43  40  89  CALM    29.95R
#WASCO AIRPORT  N/A         48  42  80  W7      N/A
#WASCO 5NE      N/A         49  43  80  W12     29.90S WCI 44
$$

ORZ511-051110-
CENTRAL OREGON

CITY            SKY/WX      TMP DP  RH  WIND    PRES   REMARKS
BEND AIRPORT    PTCLDY      39  34  82  W7      30.02R
PRINEVILLE AP   PTCLDY      41  36  82  W7      30.00R
REDMOND AIRPORT PTCLDY      34  32  92  S7      30.00R
#BEND 1SW       N/A         36  34  92  CALM    N/A
#BEND-AWBREY    N/A         39  35  85  S3      30.00R
#BEND-KIM LN    N/A         38  36  92  SW2     29.98R
#CULVER         N/A         41  35  79  CALM    29.96R
#MADRAS         N/A         40  36  85  S3      N/A
#POWELL BUTTE 3EN/A         39  36  89  CALM    N/A
#POWELL BUTTE   N/A         42  35  76  W2      29.62S
#PRINEVILLE 3N  N/A         38  35  89  W1      29.97R
#WARM SPRINGS   N/A         42  38  86  CALM    29.97R

$$


ORZ509-051110-
EAST SLOPES OF OREGON CASCADES

CITY            SKY/WX      TMP DP  RH  WIND    PRES   REMARKS
#CAMP SHERMAN   N/A         33  31  92  CALM    30.06R
#LA PINE 4NW    N/A         33  29  85  CALM    30.09R
#SISTERS AIRPOR N/A         43  39  86  N5      30.17S
#SISTERS 1NW    N/A         42  34  73  N6      N/A
#SISTERS 3N     N/A         40  33  76  CALM    30.08R
#SUNRIVER       N/A         33  31  92  CALM    29.94R
#TUMALO 3W      N/A         41  32  70  SW2     29.90R

$$

ORZ044-051110-
LOWER COLUMBIA BASIN...OREGON

CITY            SKY/WX      TMP DP  RH  WIND    PRES   REMARKS
HERMISTON       LGT RAIN    54  45  71  SW12    29.88R
#BOARDMAN SCHOOLN/A         54  46  74  SW7     29.90R
#BOARDMAN 8SW   N/A         54  46  74  SW16    29.87
#ECHO 8SW       N/A         54  45  71  W15     29.88F
#IONE SCHOOL    N/A         55  40  57  S5      29.89F
#IRRIGON 4NW    N/A         56  46  69  S18G26  N/A
#UMATILLA SCHOOLN/A         53  48  83  CALM    29.92R
#UMATILLA       N/A         56  44  64  CALM    29.81R
$$

ORZ507-051110-
NORTHERN FOOTHILLS OF THE BLUES

CITY            SKY/WX      TMP DP  RH  WIND    PRES   REMARKS
PENDLETON AIRPT LGT RAIN    49  45  86  S10     29.89S
#ADAMS 3WNW     N/A         48  45  89  SW7     29.91S
#ATHENA         N/A         48  45  89  CALM    29.91F
#CAYUSE         N/A         49  44  83  SW12    29.88F WCI 44
#HELIX SCHOOL   N/A         48  46  93  SW5     29.90R
#HELIX 3N       N/A         47  45  93  S7      29.88R
#HELIX 6SW      N/A         48  45  89  SW5     29.90
#HOLDMAN 5SE    N/A         50  46  86  SW5     29.91R
#HOLDMAN 6E     N/A         48  45  89  N10     29.70R
#M-F GROVE ELEM N/A         51  45  80  S7      29.87S
#M-FREEWATER 5SEN/A         50  45  83  S1      29.90S
#PENDLETON DNTN N/A         50  44  80  SW3     29.93S
#PDT AQUATIC CTRN/A         50  40  68  CALM    29.85F
#PDT SUNRIDGE   N/A         49  46  89  S3      29.91S
#PENDLETON 7NW  N/A         50  44  80  SW1     29.59R
#PILOT ROCK     N/A         48  42  80  S5      29.94F
#TUTUILLA       N/A         49  45  86  S8      29.92S
#UMAPINE 2E     N/A         52  47  83  S5      29.85S
#WESTON SCHOOL  N/A         47  43  86  NW8     29.84R

$$

ORZ508-051110-
SOUTHERN FOOTHILLS OF THE BLUES

CITY            SKY/WX      TMP DP  RH  WIND    PRES   REMARKS
#AJAX           N/A         49  33  54  S6      29.88S
#CONDON 5W      N/A         43  37  79  SW9     29.91S
#HEPPNER EOC    N/A         48  42  80  SW8     29.85S
#HEPPNER 4NE    N/A         45  41  86  W5      29.91S
#LEXINGTON 2SE  N/A         52  44  74  CALM    29.91S
#MIKKALO        N/A         53  38  57  W7      29.87
#OLEX 4N        N/A         54  42  64  SW15    29.91S
#RUGGS 5NE      N/A         45  41  86  SW10    30.07S
#RUGGS 2SW      N/A         47  40  76  W7      29.94S

$$

ORZ502-503-051110-
BLUE MOUNTAINS

CITY            SKY/WX      TMP DP  RH  WIND    PRES   REMARKS
MEACHAM         LGT RAIN    41  39  93  CALM    29.90F
#HEPPNER 15SE   N/A         39  37  92  CALM    29.82S
#LONG CREEK HS  N/A         42  42  100 CALM    29.90S
#PIKES PEAK     N/A         41  40  96  SW21    27.99S WCI 32
#TOLLGATE       N/A         36  35  96  SW2     29.76F
#TROY SCHOOL    N/A         50  45  83  SE7     29.72R
#UKIAH          N/A         41  39  93  CALM    30.01S
#WESTON 4E      N/A         42  41  96  SW6     29.83F
$$

ORZ505-051110-
JOHN DAY BASIN

CITY            SKY/WX      TMP DP  RH  WIND    PRES   REMARKS
JOHN DAY        LGT DRIZZLE 43  41  93  SW3     29.96R
#JOHN DAY KJDY  N/A         44  41  89  CALM    29.98F
#DAYVILLE SCHOOLN/A         47  44  89  CALM    29.93S
#MITCHELL       N/A         46  45  96  CALM    30.14R
#MITCHELL 8NW   N/A         44  36  73  SW3     30.16R
#MONUMENT HS    N/A         47  44  89  CALM    29.96S
#MT. VERNON 5SE N/A         40  38  92  CALM    29.91R
#SPRAY SCHOOL   N/A         52  N/A N/A CALM    N/A
$$

ORZ506-051110-
OCHOCO AND JOHN DAY HIGHLANDS

CITY            SKY/WX      TMP DP  RH  WIND    PRES   REMARKS
#PAULINA SCHOOL N/A         44  40  86  N3      29.93S
#PINE MTN OBS   N/A         32  31  96  NW2     N/A
#PRAIRIE CITY   N/A         42  42  100 CALM    30.03R
#SENECA         N/A         38  N/A N/A CALM    N/A
#SENECA 9NW     N/A         37  36  96  CALM    29.98R
$$

ORZ049-051110-
GRANDE RONDE VALLEY

CITY            SKY/WX      TMP DP  RH  WIND    PRES   REMARKS
LA GRANDE       CLOUDY      41  30  65  SE6     29.93R
#COVE           N/A         40  40  100 CALM    29.96S
#COVE SCHOOL    N/A         40  38  92  CALM    29.97S
#ELGIN 3N       N/A         40  38  92  CALM    29.92R
#ELGIN 1E       N/A         41  37  86  CALM    N/A
#ISLAND CITY 4N N/A         48  45  89  CALM    30.05R
#LA GRANDE ELEM N/A         42  36  79  CALM    29.96R
#UNION 1S       N/A         41  38  89  N1      29.85R
$$

ORZ050-051110-
WALLOWA COUNTY

CITY            SKY/WX      TMP DP  RH  WIND    PRES   REMARKS
#ENTERPRISE HS  N/A         40  37  89  NE5     29.91R
#IMNAHA SCHOOL  N/A         50  44  80  SE3     29.88R
#IMNAHA 10S     N/A         45  43  93  S2      29.87R
#JOSEPH 3N      N/A         39  32  76  N7      29.91R
#JOSEPH 3W      N/A         37  36  96  CALM    29.75R
#LOSTINE        N/A         40  38  92  N7      29.68R
#MT HOWARD 8000 N/A         31  29  92  CALM    29.88R
#PROMISE 1S     N/A         40  37  89  E7      29.93R
#WALLOWA SCHOOL N/A         41  37  86  CALM    29.89R



$$



USA.gov is the U.S. government's official web portal to all federal, state and local government web resources and services.